Preview of NWS' New Version of Forecast
This preview is not operational and should not be used for support decisions.

Regional Weather Roundup (RWR)

Issued by National Weather Service (NWS)

                            
000
ASUS43 KDMX 181906
RWRIA 

WEATHER ROUNDUP FOR IOWA
NATIONAL WEATHER SERVICE DES MOINES IA
100 PM CST MON FEB 18 2019

NOTE: "FAIR" INDICATES FEW OR NO CLOUDS BELOW 12,000 FEET WITH NO
SIGNIFICANT WEATHER AND/OR OBSTRUCTIONS TO VISIBILITY.

* - THESE STATIONS ARE NOT NWS STATIONS...THUS NOT UNDER NWS
QUALITY CONTROL.  THEY ALSO DO NOT REPORT WEATHER SUCH 
AS PRECIPITATION OR FOG.  

IAZ001>003-012>014-020>022-031>034-043>046-182000-
   NORTHWEST IOWA
  
CITY           SKY/WX    TMP DP  RH WIND       PRES   REMARKS
CARROLL *      SUNNY     12   7  79 NW7       30.48S WCI   2          
CHEROKEE *     SUNNY     15   6  65 CALM      30.49R                  
DENISON *      SUNNY     14   7  73 NW6       30.50S WCI   5          
LE MARS *      SUNNY     12   5  73 NW8       30.50S WCI   1          
ORANGE CITY *  MOSUNNY   12   7  79 NW8       30.47S WCI   1          
SHELDON *      MOSUNNY    9   5  85 NW7       30.46S WCI  -3          
SIOUX CITY     SUNNY     12   5  73 N12       30.51F WCI  -2          
SPENCER        SUNNY     16   6  65 CALM      30.46S                  
STORM LAKE *   SUNNY     12   7  79 NW6       30.45S WCI   3          
$$
 
IAZ055>058-069>071-079>083-090>094-182000-
   SOUTHWEST IOWA
  
CITY           SKY/WX    TMP DP  RH WIND       PRES   REMARKS
ATLANTIC *     SUNNY     16  10  79 NW6       30.50R WCI   7          
AUDUBON *      SUNNY     16   9  73 CALM      30.48F                  
CLARINDA *     SUNNY     19  12  73 NW7       30.53F WCI  10          
COUNCIL BLFS * SUNNY     18  14  86 NE7       30.49S WCI   8          
CRESTON *      SUNNY     18  12  79 NW9       30.48R WCI   6          
HARLAN  *      SUNNY     14   9  79 NW8       30.49F WCI   3          
LAMONI         SUNNY     23  15  71 NW9       30.45S WCI  13          
RED OAK *      SUNNY     18  12  79 NW7       30.52R WCI   8          
SHENANDOAH *   SUNNY     18  12  79 N9        30.52F WCI   6          
$$
 
IAZ047>049-059>061-072>074-084-182000-
   CENTRAL IOWA
  
CITY           SKY/WX    TMP DP  RH WIND       PRES   REMARKS
AMES           SUNNY     16   8  71 N5        30.48R WCI   9          
ANKENY *       SUNNY     16   9  73 NW7       30.49F WCI   6          
BOONE *        SUNNY     12   9  85 N5        30.46R WCI   4          
CHARITON *     SUNNY     21  14  73 NW9       30.46S WCI  11          
DES MOINES     MOSUNNY   19  11  70 W8        30.48S WCI   9          
GRINNELL*      SUNNY     17  12  78 NW7       30.46S WCI   8          
KNOXVILLE *    SUNNY     19  19 100 NW10      30.46S WCI   8          
MARSHALLTOWN   SUNNY     15  10  80 NW8       30.45R WCI   4          
NEWTON *       SUNNY     18  10  73 W9        30.47R WCI   6          
PELLA *        SUNNY     21  12  66 NW9       30.49S WCI  11          
PERRY *        FAIR      15   7  72 CALM      30.48F                  
$$
 
IAZ004>006-015-016-023>025-035-036-182000-
   NORTH CENTRAL IOWA
  
CITY           SKY/WX    TMP DP  RH WIND       PRES   REMARKS
ALGONA *       SUNNY     10   7  85 N8        30.45R WCI  -1          
CLARION *      SUNNY      9   5  85 N8        30.46S WCI  -4          
ESTHERVILLE    SUNNY     11   5  77 N8        30.45F WCI  -1          
FORT DODGE *   SUNNY     21   8  57 NW6       30.47R WCI  13          
MASON CITY     SUNNY     12   7  80 NW8       30.45F WCI   0          
FOREST CITY *  FAIR      12   7  79 NW8       30.44F WCI   1          
IOWA FALLS *   FAIR      16  10  76 N9        30.46R WCI   4          
$$

IAZ007>011-017>019-026>030-037>042-050>054-066-182000-
   NORTHEAST IOWA
  
CITY           SKY/WX    TMP DP  RH WIND       PRES   REMARKS
CEDAR RAPIDS   FAIR      17  13  84 W8        30.44R WCI   7          
CHARLES CITY * FAIR      14   7  73 NW7       30.44S WCI   4          
CLINTON *      FAIR      29  18  63 W6        30.44R WCI  23          
DECORAH *      FAIR      19  14  79 NW7       30.40S WCI  10          
DUBUQUE        FAIR      23  13  65 N6        30.39R WCI  16          
OELWEIN *      FAIR      16  10  79 NW8       30.43R WCI   5          
WATERLOO       FAIR      18  10  71 N6        30.45R WCI  10          
$$
 
IAZ064-065-067-068-078-182000-
   EAST CENTRAL IOWA
  
CITY           SKY/WX    TMP DP  RH WIND       PRES   REMARKS
DAVENPORT      FAIR      23  15  71 MISG      30.44R                  
IOWA CITY      FAIR      24  15  68 W7        30.46R WCI  16          
MT. PLEASANT * SUNNY     30  19  64 N7        30.45S WCI  23          
MUSCATINE *    PTSUNNY   27  16  63 NW6       30.46S WCI  20          
QUAD CITIES    FAIR      29  18  63 W7        30.43R WCI  22          
$$
 
IAZ062-063-075>077-085>089-095>099-182000-
   SOUTHEAST IOWA
  
CITY           SKY/WX    TMP DP  RH WIND       PRES   REMARKS
BURLINGTON     SUNNY     26  16  65 NW10      30.43S WCI  16          
FAIRFIELD *    SUNNY     21  14  73 NW10      30.45S WCI  10          
KEOKUK *       MOSUNNY   28  18  64 N13       30.44S WCI  18          
OSKALOOSA *    FAIR      22  15  72 NW7       30.47S WCI  14          
OTTUMWA        SUNNY     22  15  75 N10       30.46S WCI  11          
WASHINGTON *   SUNNY     23  18  80 W9        30.46S WCI  13          
$$

ABBREVIATIONS USED IN REMARKS
   TC - TEMPERATURES IN CELSIUS
  WCI - WIND CHILL INDEX
   HX - HEAT INDEX
  VSB - VISIBILITY  
$$